GW6246 Weather Reports


Display with metric or nautical units.
time (UTC)temp
F
wind
direction
speed
MPH
gust
MPH
rain 1hr
in
rain 24hr
in
rain mn
in
humidity
%
barometer
mb
20260508032632 61 211 0.0 0.0 0.00 0.00 0.00 86 1015.2
20260508032132 61 189 0.0 0.0 0.00 0.00 0.00 85 1015.2
20260508031132 62 198 0.0 0.0 0.00 0.00 0.00 85 1015.2
20260508030132 62 204 0.0 0.0 0.00 0.00 0.00 84 1014.9
20260508022132 65 188 1.0 1.0 0.00 0.00 0.00 79 1014.6
20260508021132 66 179 1.0 1.0 0.00 0.00 0.00 77 1014.6
20260508020132 67 171 1.0 1.0 0.00 0.00 0.00 76 1014.6
20260508015632 67 182 1.0 1.0 0.00 0.00 0.00 75 1014.6
20260508013632 69 188 1.0 1.0 0.00 0.00 0.00 73 1014.6
20260508013132 69 188 1.0 1.0 0.00 0.00 0.00 73 1014.6
20260508011632 69 179 1.0 1.0 0.00 0.00 0.00 71 1014.6
20260508011132 70 179 1.0 1.0 0.00 0.00 0.00 71 1014.2
20260508010132 71 189 1.0 1.0 0.00 0.00 0.00 69 1014.2
20260508005132 71 173 1.0 1.0 0.00 0.00 0.00 69 1014.2
20260508004131 71 191 1.0 1.0 0.00 0.00 0.00 68 1014.2
20260508003131 73 174 1.0 1.0 0.00 0.00 0.00 66 1014.2
20260508002132 73 177 1.0 1.0 0.00 0.00 0.00 66 1014.2
20260508001631 73 167 1.0 1.0 0.00 0.00 0.00 67 1014.2
20260507234132 75 196 1.0 1.0 0.00 0.00 0.00 63 1014.2
20260507233132 75 182 1.0 1.0 0.00 0.00 0.00 62 1014.2
20260507232132 74 175 2.0 2.0 0.00 0.00 0.00 64 1014.2
20260507231631 75 157 2.0 2.0 0.00 0.00 0.00 63 1014.2
20260507231131 76 11 2.0 2.0 0.00 0.00 0.00 60 1014.6
20260507230131 74 87 2.0 2.0 0.00 0.00 0.00 62 1014.6
20260507225131 75 171 2.0 2.0 0.00 0.00 0.00 65 1014.6
20260507224631 76 169 1.0 1.0 0.00 0.00 0.00 62 1014.6
20260507222631 75 157 1.0 1.0 0.00 0.00 0.00 64 1014.6
20260507222132 75 167 1.0 1.0 0.00 0.00 0.00 63 1014.6
20260507221131 75 156 1.0 1.0 0.00 0.00 0.00 63 1014.9
20260507220631 75 213 1.0 1.0 0.00 0.00 0.00 61 1014.9
20260507215131 75 174 1.0 1.0 0.00 0.00 0.00 61 1014.9
20260507214131 76 164 1.0 1.0 0.00 0.00 0.00 62 1015.2
20260507213131 77 168 1.0 1.0 0.00 0.00 0.00 61 1015.2
20260507211631 75 144 1.0 1.0 0.00 0.00 0.00 62 1015.2
20260507211131 76 160 1.0 1.0 0.00 0.00 0.00 62 1015.2
20260507210631 76 139 1.0 1.0 0.00 0.00 0.00 61 1015.2
20260507205131 75 149 1.0 1.0 0.00 0.00 0.00 62 1015.2
20260507203631 76 103 1.0 1.0 0.00 0.00 0.00 61 1015.2
20260507203131 75 121 1.0 1.0 0.00 0.00 0.00 60 1015.2
20260507202631 75 179 1.0 1.0 0.00 0.00 0.00 63 1015.2
20260507201631 75 164 1.0 1.0 0.00 0.00 0.00 62 1015.2
20260507200631 74 163 1.0 1.0 0.00 0.00 0.00 62 1015.6
20260507200131 74 163 1.0 1.0 0.00 0.00 0.00 62 1015.6
20260507195631 74 152 1.0 1.0 0.00 0.00 0.00 63 1015.6
20260507193631 73 144 1.0 1.0 0.00 0.00 0.00 63 1015.6
20260507193131 73 173 1.0 1.0 0.00 0.00 0.00 62 1015.6
20260507192131 72 162 1.0 1.0 0.00 0.00 0.00 63 1015.9
20260507191131 72 167 1.0 1.0 0.00 0.00 0.00 64 1015.9
20260507190131 72 41 1.0 1.0 0.00 0.00 0.00 63 1016.3
20260507185631 72 115 1.0 1.0 0.00 0.00 0.00 62 1016.3
20260507184631 71 154 1.0 1.0 0.00 0.00 0.00 63 1016.3
20260507184130 71 165 1.0 1.0 0.00 0.00 0.00 63 1016.3
20260507183131 71 150 1.0 1.0 0.00 0.00 0.00 63 1016.3
20260507182631 71 141 1.0 1.0 0.00 0.00 0.00 62 1016.3
20260507182131 70 101 1.0 1.0 0.00 0.00 0.00 62 1016.3
20260507181131 69 173 1.0 1.0 0.00 0.00 0.00 64 1016.3
20260507180631 69 162 1.0 1.0 0.00 0.00 0.00 64 1016.3
20260507175631 68 158 0.0 0.0 0.00 0.00 0.00 65 1016.3
20260507175131 68 149 0.0 0.0 0.00 0.00 0.00 66 1016.3
20260507173131 67 166 0.0 0.0 0.00 0.00 0.00 68 1016.6
20260507172130 66 159 0.0 0.0 0.00 0.00 0.00 69 1016.6
20260507171131 66 243 0.0 0.0 0.00 0.00 0.00 72 1016.6
20260507170131 65 136 0.0 0.0 0.00 0.00 0.00 73 1016.6
20260507165131 65 330 0.0 0.0 0.00 0.00 0.00 75 1016.6
20260507164131 64 120 0.0 0.0 0.00 0.00 0.00 76 1016.6
20260507163130 64 151 0.0 0.0 0.00 0.00 0.00 76 1016.6
20260507162130 63 165 0.0 0.0 0.00 0.00 0.00 79 1016.6
20260507161130 61 177 0.0 0.0 0.00 0.00 0.00 82 1016.6
20260507160630 60 209 0.0 0.0 0.00 0.00 0.00 83 1016.6
20260507155130 60 173 0.0 0.0 0.00 0.00 0.00 85 1016.9
20260507154130 59 188 0.0 0.0 0.00 0.00 0.00 87 1016.9
20260507153630 58 171 0.0 0.0 0.00 0.00 0.00 87 1016.9
20260507153130 58 153 0.0 0.0 0.00 0.00 0.00 87 1016.9
20260507152130 57 150 0.0 0.0 0.00 0.00 0.00 88 1016.9
20260507151130 57 300 0.0 0.0 0.00 0.00 0.00 89 1016.9
20260507145631 56 177 0.0 0.0 0.00 0.00 0.00 90 1016.9
20260507145130 56 178 0.0 0.0 0.00 0.00 0.00 90 1016.9
20260507144131 55 0 0.0 0.0 0.00 0.00 0.00 92 1016.6
20260507143630 54 191 0.0 0.0 0.00 0.00 0.00 93 1016.6
20260507143130 53 249 0.0 0.0 0.00 0.00 0.00 94 1016.6
20260507142130 53 280 0.0 0.0 0.00 0.00 0.00 93 1016.3
20260507141131 53 0 0.0 0.0 0.00 0.00 0.00 93 1016.3
20260507135130 53 0 0.0 0.0 0.00 0.00 0.00 93 1016.3
20260507134130 53 337 0.0 0.0 0.00 0.00 0.00 93 1016.3
20260507133630 53 0 0.0 0.0 0.00 0.00 0.00 93 1015.9
20260507133130 53 0 0.0 0.0 0.00 0.00 0.00 93 1015.9
20260507132630 53 0 0.0 0.0 0.00 0.00 0.00 93 1015.9
20260507131630 53 0 0.0 0.0 0.00 0.00 0.00 93 1015.9
20260507131130 53 0 0.0 0.0 0.00 0.00 0.00 93 1015.9
20260507130630 53 0 0.0 0.0 0.00 0.00 0.00 93 1015.9
20260507125630 53 0 0.0 0.0 0.00 0.00 0.00 93 1015.9
20260507125130 53 0 0.0 0.0 0.00 0.00 0.00 92 1015.9
20260507124130 53 0 0.0 0.0 0.00 0.00 0.00 92 1015.9
20260507123130 53 0 0.0 0.0 0.00 0.00 0.00 92 1015.6
20260507122130 53 296 0.0 0.0 0.00 0.00 0.00 92 1015.9
20260507120130 53 0 0.0 0.0 0.00 0.00 0.00 92 1015.9
20260507115130 54 0 0.0 0.0 0.00 0.00 0.00 93 1015.9
20260507114130 54 0 0.0 0.0 0.00 0.00 0.00 92 1015.9
20260507113130 54 0 0.0 0.0 0.00 0.00 0.00 92 1016.3
20260507112630 54 0 0.0 0.0 0.00 0.00 0.00 92 1016.3
20260507111630 54 0 0.0 0.0 0.00 0.00 0.00 92 1016.3
20260507111130 54 0 0.0 0.0 0.00 0.00 0.00 92 1016.3
20260507110130 54 0 0.0 0.0 0.00 0.00 0.00 92 1016.3
20260507105130 54 0 0.0 0.0 0.00 0.00 0.00 91 1016.3
20260507104130 54 0 0.0 0.0 0.00 0.00 0.00 91 1016.3
20260507103630 54 273 0.0 0.0 0.00 0.00 0.00 91 1016.3
20260507103129 55 0 0.0 0.0 0.00 0.00 0.00 91 1016.3
20260507101629 55 0 0.0 0.0 0.00 0.00 0.00 91 1016.3
20260507100630 54 0 0.0 0.0 0.00 0.00 0.00 90 1016.3
20260507095629 55 0 0.0 0.0 0.00 0.00 0.00 90 1016.3
20260507094130 55 0 0.0 0.0 0.00 0.00 0.00 90 1016.6
20260507093129 55 274 0.0 0.0 0.00 0.00 0.00 90 1016.6
20260507091629 55 339 0.0 0.0 0.00 0.00 0.00 90 1016.9
20260507090629 55 1 0.0 0.0 0.00 0.00 0.00 90 1016.9
20260507085630 55 0 0.0 0.0 0.00 0.00 0.00 90 1016.9
20260507085129 55 0 0.0 0.0 0.00 0.00 0.00 89 1017.3
20260507084130 56 0 0.0 0.0 0.00 0.00 0.00 89 1017.3
20260507083129 56 0 0.0 0.0 0.00 0.00 0.00 90 1017.3
20260507082130 56 0 0.0 0.0 0.00 0.00 0.00 89 1017.3
20260507081129 56 0 0.0 0.0 0.00 0.00 0.00 89 1017.3
20260507080629 56 0 0.0 0.0 0.00 0.00 0.00 89 1017.3
20260507075629 56 0 0.0 0.0 0.00 0.00 0.00 89 1017.3
20260507075129 56 0 0.0 0.0 0.00 0.00 0.00 89 1017.3
20260507074129 57 0 0.0 0.0 0.00 0.00 0.00 88 1017.3
20260507073629 57 0 0.0 0.0 0.00 0.00 0.00 88 1017.3
20260507072629 57 0 0.0 0.0 0.00 0.00 0.00 88 1017.3
20260507071629 57 0 0.0 0.0 0.00 0.00 0.00 87 1017.3
20260507070629 57 341 0.0 0.0 0.00 0.00 0.00 87 1017.6
20260507065629 57 351 0.0 0.0 0.00 0.00 0.00 86 1017.6
20260507065129 57 0 0.0 0.0 0.00 0.00 0.00 86 1017.6
20260507064629 57 0 0.0 0.0 0.00 0.00 0.00 86 1017.6
20260507064129 58 0 0.0 0.0 0.00 0.00 0.00 86 1017.6
20260507063629 58 0 0.0 0.0 0.00 0.00 0.00 86 1017.6
20260507062629 58 339 0.0 0.0 0.00 0.00 0.00 86 1017.6
20260507061629 58 0 0.0 0.0 0.00 0.00 0.00 86 1017.6
20260507060629 58 0 0.0 0.0 0.00 0.00 0.00 86 1017.6
20260507055629 58 0 0.0 0.0 0.00 0.00 0.00 86 1017.6
20260507054629 58 0 0.0 0.0 0.00 0.00 0.00 86 1017.6
20260507053129 59 0 0.0 0.0 0.00 0.00 0.00 85 1017.6
20260507052629 59 0 0.0 0.0 0.00 0.00 0.00 85 1017.6
20260507051629 59 0 0.0 0.0 0.00 0.00 0.00 84 1017.3
20260507051129 59 0 0.0 0.0 0.00 0.00 0.00 84 1017.3
20260507050129 59 0 0.0 0.0 0.00 0.00 0.00 83 1017.6
20260507045629 60 0 0.0 0.0 0.00 0.00 0.00 83 1017.6
20260507044129 60 0 0.0 0.0 0.00 0.00 0.00 82 1017.3
20260507043629 60 0 0.0 0.0 0.00 0.00 0.00 82 1017.6
20260507042629 60 311 0.0 0.0 0.00 0.00 0.00 81 1017.6
20260507042129 60 231 0.0 0.0 0.00 0.00 0.00 81 1017.3
20260507041629 60 0 0.0 0.0 0.00 0.00 0.00 80 1017.3
20260507041129 61 3 0.0 0.0 0.00 0.00 0.00 80 1017.3
20260507040629 61 26 0.0 0.0 0.00 0.00 0.00 79 1017.3
20260507040129 61 22 0.0 0.0 0.00 0.00 0.00 79 1017.3
20260507034629 61 29 0.0 0.0 0.00 0.00 0.00 77 1016.9
20260507033629 62 95 0.0 0.0 0.00 0.00 0.00 76 1016.9